Regional Weather Roundup
Issued by NWS Memphis, TN

Home | Current Version | Previous Version | Text Only | Print | Product List | Glossary On
Versions: 1 2 3 4 5 6 7 8 9 10 11 12 13 14 15 16 17 18 19 20 21 22 23 24 25 26 27 28 29 30 31 32 33 34 35 36 37 38 39 40 41 42 43 44 45 46 47 48 49 50
691
ASUS44 KMEG 241910
RWRMEG
MEMPHIS CWA HOURLY WEATHER ROUNDUP
NATIONAL WEATHER SERVICE MEMPHIS TN
200 PM CDT TUE MAY 24 2016

...WEST TENNESSEE...

CITY           SKY/WX    TMP DP  RH WIND       PRES   REMARKS
MEMPHIS INTL   MOSUNNY   87  65  47 S13       30.05F
NWS MEMPHIS      N/A     88 N/A N/A MISG        N/A
JACKSON        SUNNY     85  59  41 S8        30.06F
LEXINGTON      MOSUNNY   84  55  37 VRB5      30.07F
DYERSBURG      PTSUNNY   82  57  42 SW8       30.05R
UNION CITY     SUNNY     82  61  47 S9        30.04R
PARIS          SUNNY     82  59  44 S7        30.06F


...EASTERN ARKANSAS...

CITY           SKY/WX    TMP DP  RH WIND       PRES   REMARKS
JONESBORO      CLOUDY    82  64  54 SE9       30.01F
WEST MEMPHIS   MOSUNNY   88  63  43 SW12      30.04F
BATESVILLE     PTSUNNY   84  70  61 SW12      30.01R
NEWPORT        MOSUNNY   89  69  51 S17       30.00F HX  93
WALNUT RIDGE   CLOUDY    70  63  78 NE9G18    30.03S
BLYTHEVILLE    CLOUDY    83  60  45 S14       30.04F
NW BLYTHEVILLE CLOUDY    82  61  47 SW9G15    30.03F
SEARCY         CLOUDY    86  71  60 SW9G16    30.02S HX  91
STUTTGART      PTSUNNY   88  64  45 S14G21    30.02F
PINE BLUFF     MOSUNNY   86  66  51 S13G22    30.02F
MONTICELLO     MOSUNNY   88  66  48 S15G21    30.03F HX  90


...NORTH MISSISSIPPI...

CITY           SKY/WX    TMP DP  RH WIND       PRES   REMARKS
TUPELO         SUNNY     87  55  33 S13       30.08F
OXFORD         SUNNY     84  55  37 S6        30.09S
BATESVILLE     SUNNY     86  63  45 S6        30.06F
OLIVE BRANCH   PTSUNNY   82  64  54 S12       30.06F
TUNICA         SUNNY     86  66  51 S10       30.05F
CLARKSDALE     MOSUNNY   88  68  51 SE12      30.03F HX  91
CORINTH        SUNNY     86  55  35 S9        30.07F
GREENWOOD      MOSUNNY   86  63  45 S14       30.06F
COLUMBUS       SUNNY     87  62  43 VRB7      30.08F
STARKVILLE     SUNNY     86  55  35 SE5       30.07F
GOLDEN TRIANGL SUNNY     86  55  35 S9        30.09F


...SOUTHEAST MISSOURI...

CITY           SKY/WX    TMP DP  RH WIND       PRES   REMARKS
KENNETT        CLOUDY    75  68  78 SW8       30.02S HAZE
WEST PLAINS    CLOUDY    69  66  90 E8        30.02F FOG
POPLAR BLUFF   CLOUDY    73  62  68 SW5       30.06R
CAPE GIRARDEAU MOSUNNY   82  63  52 SW16G24   30.04R


...NORTHWEST ALABAMA...

CITY           SKY/WX    TMP DP  RH WIND       PRES   REMARKS
MUSCLE SHOALS  SUNNY     86  52  30 VRB5      30.11F


...MIDDLE TENNESSEE...

CITY           SKY/WX    TMP DP  RH WIND       PRES   REMARKS
NASHVILLE      MOSUNNY   87  51  28 S8        30.10F
CLARKSVILLE    SUNNY     81  57  43 VRB7      30.08F
COLUMBIA       SUNNY     84  57  39 SW8       30.09F


...WESTERN KENTUCKY...

CITY           SKY/WX    TMP DP  RH WIND       PRES   REMARKS
PADUCAH        MOSUNNY   83  57  41 S12G17    30.04S


...CENTRAL ARKANSAS...

CITY           SKY/WX    TMP DP  RH WIND       PRES   REMARKS
LITTLE ROCK    PTSUNNY   87  68  52 SW16      30.00F HX  90


SKY/WX REPORTED AS FAIR MEANS FEW OR NO CLOUDS BELOW
12 THOUSAND FEET.





USA.gov is the U.S. government's official web portal to all federal, state and local government web resources and services.